^^
Daily Summary for December 25, 2021 Units:  English    Metric   Both
Daily Weekly Monthly Yearly Custom
  High: Low: Average:
Temperature: 43.0 °F 40.0 °F 41 °F
Dew Point: 41.0 °F 38.0 °F 39 °F
Humidity: 94% 87% 92%
Wind Speed: 40mph 0mph 15.5mph
Wind Gust: 40mph - -
Wind- - East
Pressure: 30.1 in 29.8 in -
Precipitation: 0.610 in    
Historical Graphs
 
 
Tabular Data for December 25, 2021
Time Temperature Dew Point Pressure Wind Wind Speed Wind Gust Humidity Rainfall Rate (Hourly) solar
00:04 40.0 °F 39.0 °F 30.1 in NNW 7 mph 6 mph 94% 0.010 in 0.00 W/m2
00:09 40.0 °F 39.0 °F 30.1 in NNE 11 mph 7 mph 94% 0.010 in 0.00 W/m2
00:14 40.0 °F 39.0 °F 30.1 in NE 6 mph 10 mph 94% 0.010 in 0.00 W/m2
00:19 40.0 °F 39.0 °F 30.1 in East 6 mph 6 mph 94% 0.010 in 0.00 W/m2
00:24 40.0 °F 39.0 °F 30.1 in East 11 mph 9 mph 94% 0.010 in 0.00 W/m2
00:29 40.0 °F 39.0 °F 30.1 in ENE 7 mph 10 mph 94% 0.010 in 0.00 W/m2
00:34 40.0 °F 39.0 °F 30.0 in NNE 6 mph 7 mph 94% 0.010 in 0.00 W/m2
00:39 40.0 °F 39.0 °F 30.0 in Calm   3 mph 94% 0.010 in 0.00 W/m2
00:44 40.0 °F 39.0 °F 30.0 in NNW 9 mph 4 mph 94% 0.000 in 0.00 W/m2
00:49 40.0 °F 39.0 °F 30.0 in NE 4 mph 9 mph 94% 0.000 in 0.00 W/m2
00:54 40.0 °F 39.0 °F 30.1 in ENE 9 mph 4 mph 94% 0.000 in 0.00 W/m2
00:59 40.0 °F 39.0 °F 30.0 in NNE 3 mph 9 mph 94% 0.000 in 0.00 W/m2
01:04 40.0 °F 39.0 °F 30.0 in SE 4 mph 2 mph 94% 0.000 in 0.00 W/m2
01:09 40.0 °F 39.0 °F 30.0 in SE 21 mph 7 mph 94% 0.000 in 0.00 W/m2
01:14 40.0 °F 39.0 °F 30.0 in SE 4 mph 21 mph 94% 0.000 in 0.00 W/m2
01:19 40.0 °F 39.0 °F 30.0 in ENE 6 mph 3 mph 94% 0.000 in 0.00 W/m2
01:24 40.0 °F 39.0 °F 30.1 in SE 2 mph 6 mph 94% 0.000 in 0.00 W/m2
01:29 40.0 °F 39.0 °F 30.1 in ENE 6 mph 2 mph 94% 0.000 in 0.00 W/m2
01:34 40.0 °F 39.0 °F 30.1 in NNE 11 mph 10 mph 94% 0.000 in 0.00 W/m2
01:39 40.0 °F 39.0 °F 30.0 in NNE 9 mph 9 mph 94% 0.000 in 0.00 W/m2
01:44 40.0 °F 39.0 °F 30.0 in NE 11 mph 9 mph 94% 0.000 in 0.00 W/m2
01:49 40.0 °F 38.0 °F 30.0 in NNE 13 mph 13 mph 94% 0.000 in 0.00 W/m2
01:54 40.0 °F 38.0 °F 30.0 in ENE 7 mph 13 mph 94% 0.000 in 0.00 W/m2
01:59 40.0 °F 38.0 °F 30.0 in North 7 mph 7 mph 94% 0.000 in 0.00 W/m2
02:04 40.0 °F 38.0 °F 30.0 in NE 7 mph 7 mph 93% 0.000 in 0.00 W/m2
02:09 40.0 °F 38.0 °F 30.0 in NE 4 mph 7 mph 93% 0.000 in 0.00 W/m2
02:14 40.0 °F 38.0 °F 30.0 in NNE 9 mph 5 mph 93% 0.000 in 0.00 W/m2
02:19 40.0 °F 38.0 °F 30.0 in NE 7 mph 9 mph 93% 0.000 in 0.00 W/m2
02:24 40.0 °F 38.0 °F 30.0 in NNE 9 mph 7 mph 93% 0.000 in 0.00 W/m2
02:29 40.0 °F 38.0 °F 30.0 in North 11 mph 9 mph 93% 0.000 in 0.00 W/m2
02:34 40.0 °F 38.0 °F 30.0 in NNE 11 mph 10 mph 93% 0.000 in 0.00 W/m2
02:39 40.0 °F 39.0 °F 30.0 in NNE 14 mph 10 mph 94% 0.000 in 0.00 W/m2
02:44 40.0 °F 39.0 °F 30.0 in NE 18 mph 14 mph 94% 0.000 in 0.00 W/m2
02:49 40.0 °F 39.0 °F 30.0 in NNE 11 mph 17 mph 94% 0.000 in 0.00 W/m2
02:54 40.0 °F 39.0 °F 30.0 in NNE 9 mph 10 mph 94% 0.000 in 0.00 W/m2
02:59 40.0 °F 39.0 °F 30.0 in NNE 20 mph 9 mph 94% 0.000 in 0.00 W/m2
03:04 40.0 °F 39.0 °F 30.0 in NE 14 mph 20 mph 94% 0.000 in 0.00 W/m2
03:09 40.0 °F 39.0 °F 30.0 in NNE 13 mph 6 mph 94% 0.000 in 0.00 W/m2
03:14 41.0 °F 39.0 °F 30.0 in NE 20 mph 13 mph 93% 0.000 in 0.00 W/m2
03:19 41.0 °F 39.0 °F 30.0 in NNE 13 mph 20 mph 93% 0.000 in 0.00 W/m2
03:24 41.0 °F 39.0 °F 30.0 in NE 14 mph 13 mph 93% 0.000 in 0.00 W/m2
03:29 41.0 °F 39.0 °F 30.0 in NNE 18 mph 15 mph 93% 0.000 in 0.00 W/m2
03:34 41.0 °F 39.0 °F 30.0 in ESE 28 mph 17 mph 93% 0.000 in 0.00 W/m2
03:39 41.0 °F 39.0 °F 30.0 in NE 13 mph 28 mph 93% 0.000 in 0.00 W/m2
03:44 41.0 °F 39.0 °F 30.0 in NE 11 mph 13 mph 93% 0.000 in 0.00 W/m2
03:49 41.0 °F 39.0 °F 30.0 in North 23 mph 17 mph 93% 0.000 in 0.00 W/m2
03:54 41.0 °F 39.0 °F 30.0 in NE 20 mph 23 mph 93% 0.000 in 0.00 W/m2
03:59 41.0 °F 39.0 °F 30.0 in NNE 13 mph 13 mph 93% 0.000 in 0.00 W/m2
04:04 41.0 °F 39.0 °F 30.0 in North 7 mph 13 mph 93% 0.000 in 0.00 W/m2
04:09 41.0 °F 39.0 °F 30.0 in North 18 mph 11 mph 93% 0.000 in 0.00 W/m2
04:14 41.0 °F 39.0 °F 30.0 in NE 17 mph 17 mph 93% 0.000 in 0.00 W/m2
04:19 41.0 °F 39.0 °F 30.0 in NNE 11 mph 10 mph 93% 0.000 in 0.00 W/m2
04:24 41.0 °F 39.0 °F 30.0 in NNE 14 mph 10 mph 93% 0.000 in 0.00 W/m2
04:29 41.0 °F 39.0 °F 30.0 in North 9 mph 14 mph 93% 0.000 in 0.00 W/m2
04:34 41.0 °F 39.0 °F 30.0 in NNE 13 mph 9 mph 93% 0.000 in 0.00 W/m2
04:39 40.0 °F 39.0 °F 30.0 in NE 20 mph 20 mph 93% 0.000 in 0.00 W/m2
04:44 40.0 °F 39.0 °F 30.0 in North 11 mph 17 mph 93% 0.000 in 0.00 W/m2
04:49 40.0 °F 38.0 °F 30.0 in NNE 13 mph 10 mph 92% 0.000 in 0.00 W/m2
04:54 40.0 °F 38.0 °F 30.0 in NNE 11 mph 13 mph 92% 0.000 in 0.00 W/m2
04:59 40.0 °F 38.0 °F 30.0 in NNE 13 mph 10 mph 92% 0.000 in 0.00 W/m2
05:04 40.0 °F 38.0 °F 30.0 in ENE 9 mph 13 mph 92% 0.000 in 0.00 W/m2
05:09 40.0 °F 38.0 °F 30.0 in North 13 mph 10 mph 92% 0.000 in 0.00 W/m2
05:14 40.0 °F 38.0 °F 30.0 in North 11 mph 13 mph 92% 0.000 in 0.00 W/m2
05:19 40.0 °F 38.0 °F 30.0 in NNE 12 mph 10 mph 92% 0.000 in 0.00 W/m2
05:24 40.0 °F 38.0 °F 30.0 in NE 16 mph 13 mph 92% 0.000 in 0.00 W/m2
05:29 40.0 °F 38.0 °F 30.0 in NNE 13 mph 16 mph 91% 0.000 in 0.00 W/m2
05:34 40.0 °F 38.0 °F 30.0 in NNE 11 mph 13 mph 92% 0.000 in 0.00 W/m2
05:39 40.0 °F 38.0 °F 30.0 in NE 13 mph 7 mph 92% 0.000 in 0.00 W/m2
05:44 40.0 °F 38.0 °F 30.0 in NNE 13 mph 13 mph 92% 0.000 in 0.00 W/m2
05:49 41.0 °F 38.0 °F 30.0 in NNE 13 mph 13 mph 91% 0.000 in 0.00 W/m2
05:54 41.0 °F 38.0 °F 30.0 in NNE 9 mph 13 mph 91% 0.000 in 0.00 W/m2
05:59 41.0 °F 38.0 °F 30.0 in NE 9 mph 9 mph 91% 0.000 in 0.00 W/m2
06:04 41.0 °F 38.0 °F 30.0 in North 11 mph 9 mph 91% 0.000 in 0.00 W/m2
06:09 41.0 °F 38.0 °F 30.0 in North 10 mph 10 mph 91% 0.000 in 0.00 W/m2
06:14 41.0 °F 38.0 °F 30.0 in NNE 9 mph 9 mph 91% 0.000 in 0.00 W/m2
06:19 41.0 °F 38.0 °F 30.0 in NNE 9 mph 9 mph 91% 0.000 in 0.00 W/m2
06:24 41.0 °F 38.0 °F 30.0 in NNE 9 mph 9 mph 91% 0.000 in 0.00 W/m2
06:29 41.0 °F 38.0 °F 30.0 in NE 9 mph 9 mph 91% 0.000 in 0.00 W/m2
06:34 41.0 °F 38.0 °F 30.0 in NE 11 mph 9 mph 90% 0.000 in 0.00 W/m2
06:39 41.0 °F 38.0 °F 30.0 in NE 20 mph 15 mph 90% 0.000 in 0.00 W/m2
06:44 41.0 °F 38.0 °F 30.0 in NNE 13 mph 20 mph 90% 0.000 in 0.00 W/m2
06:49 41.0 °F 38.0 °F 30.0 in NW 21 mph 13 mph 90% 0.000 in 0.00 W/m2
06:54 41.0 °F 38.0 °F 30.0 in East 21 mph 21 mph 90% 0.000 in 0.00 W/m2
06:59 41.0 °F 39.0 °F 30.0 in NNE 18 mph 21 mph 90% 0.000 in 0.00 W/m2
07:04 41.0 °F 38.0 °F 30.0 in NNE 23 mph 17 mph 89% 0.000 in 0.00 W/m2
07:09 41.0 °F 38.0 °F 30.0 in ENE 17 mph 23 mph 89% 0.000 in 0.00 W/m2
07:14 41.0 °F 38.0 °F 30.0 in ENE 27 mph 16 mph 89% 0.000 in 0.00 W/m2
07:19 42.0 °F 38.0 °F 30.0 in NNE 21 mph 26 mph 88% 0.000 in 0.00 W/m2
07:24 42.0 °F 38.0 °F 30.0 in NNE 18 mph 17 mph 88% 0.000 in 5.00 W/m2
07:29 41.0 °F 38.0 °F 30.0 in NNE 11 mph 17 mph 88% 0.000 in 5.00 W/m2
07:34 41.0 °F 38.0 °F 30.0 in NNE 18 mph 9 mph 88% 0.000 in 9.00 W/m2
07:39 41.0 °F 38.0 °F 30.0 in SSE 11 mph 17 mph 88% 0.000 in 12.00 W/m2
07:44 41.0 °F 38.0 °F 30.0 in NE 16 mph 10 mph 88% 0.000 in 16.00 W/m2
07:49 41.0 °F 38.0 °F 30.0 in ESE 13 mph 16 mph 88% 0.000 in 11.00 W/m2
07:54 41.0 °F 38.0 °F 30.0 in ENE 16 mph 13 mph 88% 0.000 in 9.00 W/m2
07:59 41.0 °F 38.0 °F 30.0 in NE 16 mph 16 mph 88% 0.000 in 14.00 W/m2
08:04 41.0 °F 38.0 °F 30.0 in East 9 mph 16 mph 88% 0.000 in 16.00 W/m2
08:09 41.0 °F 38.0 °F 30.0 in ENE 18 mph 9 mph 88% 0.000 in 32.00 W/m2
08:14 41.0 °F 38.0 °F 30.0 in NNE 18 mph 17 mph 88% 0.000 in 62.00 W/m2
08:19 41.0 °F 38.0 °F 30.0 in East 16 mph 17 mph 88% 0.000 in 62.00 W/m2
08:24 41.0 °F 38.0 °F 30.0 in NNE 13 mph 16 mph 89% 0.000 in 67.00 W/m2
08:29 42.0 °F 39.0 °F 30.0 in ENE 18 mph 13 mph 89% 0.000 in 62.00 W/m2
08:34 42.0 °F 39.0 °F 30.0 in NE 23 mph 17 mph 89% 0.000 in 30.00 W/m2
08:39 42.0 °F 38.0 °F 30.0 in East 18 mph 23 mph 88% 0.000 in 26.00 W/m2
08:44 42.0 °F 39.0 °F 30.0 in ENE 20 mph 17 mph 88% 0.000 in 42.00 W/m2
08:49 42.0 °F 39.0 °F 30.0 in SE 16 mph 20 mph 88% 0.000 in 49.00 W/m2
08:54 42.0 °F 39.0 °F 30.0 in NNE 28 mph 14 mph 88% 0.000 in 74.00 W/m2
08:59 42.0 °F 39.0 °F 30.0 in NE 18 mph 28 mph 88% 0.000 in 97.00 W/m2
09:04 42.0 °F 38.0 °F 30.0 in NNE 18 mph 17 mph 87% 0.000 in 79.00 W/m2
09:09 42.0 °F 38.0 °F 30.0 in ENE 21 mph 17 mph 87% 0.000 in 79.00 W/m2
09:14 42.0 °F 38.0 °F 30.0 in NNE 18 mph 21 mph 87% 0.000 in 70.00 W/m2
09:19 42.0 °F 38.0 °F 30.0 in ENE 18 mph 13 mph 87% 0.000 in 100.00 W/m2
09:24 42.0 °F 38.0 °F 30.0 in NE 25 mph 17 mph 87% 0.000 in 123.00 W/m2
09:29 42.0 °F 38.0 °F 30.0 in East 20 mph 25 mph 87% 0.000 in 144.00 W/m2
09:34 42.0 °F 39.0 °F 30.0 in NE 25 mph 20 mph 87% 0.000 in 142.00 W/m2
09:39 42.0 °F 39.0 °F 30.0 in NE 21 mph 25 mph 87% 0.000 in 69.00 W/m2
09:44 42.0 °F 39.0 °F 30.0 in NE 18 mph 21 mph 87% 0.000 in 65.00 W/m2
09:49 42.0 °F 39.0 °F 30.0 in North 30 mph 17 mph 87% 0.000 in 65.00 W/m2
09:54 42.0 °F 39.0 °F 30.0 in NE 16 mph 30 mph 87% 0.000 in 56.00 W/m2
09:59 42.0 °F 39.0 °F 30.0 in NNE 23 mph 16 mph 87% 0.000 in 46.00 W/m2
10:04 42.0 °F 39.0 °F 30.0 in ENE 18 mph 23 mph 88% 0.000 in 37.00 W/m2
10:09 42.0 °F 39.0 °F 30.0 in NNE 16 mph 17 mph 89% 0.000 in 37.00 W/m2
10:14 42.0 °F 39.0 °F 30.0 in East 16 mph 16 mph 89% 0.000 in 37.00 W/m2
10:19 42.0 °F 39.0 °F 30.0 in NE 18 mph 16 mph 90% 0.000 in 49.00 W/m2
10:24 42.0 °F 39.0 °F 30.0 in NE 18 mph 17 mph 90% 0.000 in 49.00 W/m2
10:29 42.0 °F 39.0 °F 30.0 in ENE 23 mph 17 mph 90% 0.000 in 60.00 W/m2
10:34 42.0 °F 40.0 °F 30.0 in NE 27 mph 23 mph 91% 0.000 in 60.00 W/m2
10:39 42.0 °F 40.0 °F 30.0 in NE 20 mph 26 mph 91% 0.000 in 44.00 W/m2
10:44 42.0 °F 40.0 °F 30.0 in ENE 20 mph 13 mph 91% 0.000 in 40.00 W/m2
10:49 42.0 °F 40.0 °F 30.0 in NE 21 mph 20 mph 91% 0.000 in 86.00 W/m2
10:54 42.0 °F 40.0 °F 30.0 in NE 20 mph 21 mph 91% 0.000 in 104.00 W/m2
10:59 43.0 °F 40.0 °F 29.9 in ENE 25 mph 20 mph 91% 0.000 in 156.00 W/m2
11:04 43.0 °F 40.0 °F 29.9 in NE 19 mph 25 mph 91% 0.000 in 156.00 W/m2
11:09 43.0 °F 41.0 °F 29.9 in North 21 mph 15 mph 91% 0.000 in 104.00 W/m2
11:14 43.0 °F 41.0 °F 29.9 in NNW 21 mph 21 mph 91% 0.010 in 98.00 W/m2
11:19 43.0 °F 41.0 °F 29.9 in North 40 mph 30 mph 91% 0.010 in 84.00 W/m2
11:24 43.0 °F 41.0 °F 29.9 in NE 16 mph 40 mph 90% 0.010 in 60.00 W/m2
11:29 43.0 °F 41.0 °F 29.9 in ENE 16 mph 16 mph 90% 0.010 in 44.00 W/m2
11:34 43.0 °F 41.0 °F 29.9 in East 30 mph 16 mph 90% 0.010 in 39.00 W/m2
11:39 43.0 °F 41.0 °F 29.9 in East 16 mph 30 mph 90% 0.020 in 26.00 W/m2
11:44 43.0 °F 41.0 °F 29.9 in NNW 16 mph 16 mph 90% 0.040 in 19.00 W/m2
11:49 43.0 °F 40.0 °F 29.9 in ENE 28 mph 13 mph 90% 0.040 in 28.00 W/m2
11:54 43.0 °F 40.0 °F 29.9 in NNE 28 mph 28 mph 90% 0.050 in 26.00 W/m2
11:58 43.0 °F 40.0 °F 29.9 in North 24 mph 25 mph 90% 0.050 in 25.00 W/m2
12:04 42.0 °F 40.0 °F 29.9 in ENE 11 mph 20 mph 90% 0.060 in 40.00 W/m2
12:09 42.0 °F 40.0 °F 29.9 in NNE 25 mph 21 mph 91% 0.060 in 35.00 W/m2
12:14 42.0 °F 40.0 °F 29.9 in SE 16 mph 25 mph 91% 0.060 in 46.00 W/m2
12:19 42.0 °F 40.0 °F 29.9 in ESE 19 mph 14 mph 91% 0.070 in 56.00 W/m2
12:24 42.0 °F 40.0 °F 29.9 in SSW 20 mph 20 mph 91% 0.070 in 53.00 W/m2
12:29 42.0 °F 40.0 °F 29.9 in SE 25 mph 20 mph 92% 0.080 in 56.00 W/m2
12:34 42.0 °F 40.0 °F 29.9 in ENE 9 mph 25 mph 92% 0.080 in 40.00 W/m2
12:39 42.0 °F 40.0 °F 29.9 in East 16 mph 13 mph 92% 0.080 in 62.00 W/m2
12:44 42.0 °F 40.0 °F 29.9 in ENE 21 mph 16 mph 92% 0.070 in 49.00 W/m2
12:49 42.0 °F 40.0 °F 29.9 in East 21 mph 21 mph 92% 0.070 in 32.00 W/m2
12:54 42.0 °F 40.0 °F 29.9 in NNE 18 mph 9 mph 92% 0.070 in 40.00 W/m2
12:59 42.0 °F 39.0 °F 29.9 in NNE 27 mph 17 mph 92% 0.070 in 33.00 W/m2
13:04 41.0 °F 39.0 °F 29.9 in NNW 11 mph 26 mph 92% 0.060 in 23.00 W/m2
13:09 41.0 °F 39.0 °F 29.9 in East 20 mph 10 mph 92% 0.070 in 18.00 W/m2
13:14 41.0 °F 39.0 °F 29.9 in NNE 18 mph 20 mph 92% 0.070 in 23.00 W/m2
13:19 41.0 °F 39.0 °F 29.9 in NE 20 mph 20 mph 92% 0.060 in 28.00 W/m2
13:24 41.0 °F 39.0 °F 29.9 in East 14 mph 17 mph 92% 0.070 in 35.00 W/m2
13:29 41.0 °F 39.0 °F 29.9 in East 9 mph 10 mph 92% 0.070 in 32.00 W/m2
13:34 41.0 °F 39.0 °F 29.9 in East 13 mph 9 mph 92% 0.070 in 33.00 W/m2
13:39 41.0 °F 39.0 °F 29.9 in East 18 mph 13 mph 93% 0.080 in 26.00 W/m2
13:44 41.0 °F 39.0 °F 29.9 in ENE 17 mph 17 mph 93% 0.080 in 23.00 W/m2
13:49 41.0 °F 39.0 °F 29.9 in SE 13 mph 9 mph 93% 0.080 in 26.00 W/m2
13:54 41.0 °F 39.0 °F 29.9 in ENE 11 mph 13 mph 93% 0.100 in 25.00 W/m2
13:59 41.0 °F 39.0 °F 29.9 in East 9 mph 10 mph 93% 0.090 in 21.00 W/m2
14:04 41.0 °F 39.0 °F 29.9 in ENE 14 mph 9 mph 93% 0.110 in 12.00 W/m2
14:09 41.0 °F 39.0 °F 29.9 in SE 18 mph 14 mph 93% 0.110 in 11.00 W/m2
14:14 41.0 °F 39.0 °F 29.9 in SE 28 mph 22 mph 93% 0.130 in 11.00 W/m2
14:19 41.0 °F 39.0 °F 29.9 in SE 21 mph 28 mph 93% 0.140 in 12.00 W/m2
14:24 41.0 °F 39.0 °F 29.9 in East 18 mph 21 mph 93% 0.140 in 16.00 W/m2
14:29 41.0 °F 39.0 °F 29.9 in ENE 9 mph 17 mph 93% 0.160 in 18.00 W/m2
14:34 41.0 °F 39.0 °F 29.9 in NE 13 mph 10 mph 93% 0.170 in 12.00 W/m2
14:39 41.0 °F 39.0 °F 29.9 in ESE 16 mph 13 mph 93% 0.180 in 19.00 W/m2
14:44 41.0 °F 39.0 °F 29.9 in ESE 20 mph 16 mph 93% 0.180 in 26.00 W/m2
14:49 41.0 °F 40.0 °F 29.9 in NE 11 mph 20 mph 94% 0.180 in 39.00 W/m2
14:54 41.0 °F 40.0 °F 29.9 in NNE 18 mph 8 mph 94% 0.170 in 53.00 W/m2
14:59 41.0 °F 40.0 °F 29.8 in NNE 6 mph 17 mph 94% 0.160 in 44.00 W/m2
15:04 41.0 °F 40.0 °F 29.8 in SSE 18 mph 10 mph 94% 0.150 in 26.00 W/m2
15:09 41.0 °F 40.0 °F 29.8 in ESE 18 mph 17 mph 94% 0.140 in 26.00 W/m2
15:14 41.0 °F 40.0 °F 29.8 in South 20 mph 17 mph 94% 0.120 in 19.00 W/m2
15:19 41.0 °F 40.0 °F 29.8 in East 13 mph 20 mph 94% 0.110 in 16.00 W/m2
15:24 41.0 °F 40.0 °F 29.8 in ENE 18 mph 13 mph 94% 0.100 in 25.00 W/m2
15:29 41.0 °F 40.0 °F 29.8 in NNW 13 mph 17 mph 94% 0.080 in 25.00 W/m2
15:34 41.0 °F 40.0 °F 29.8 in NNE 11 mph 13 mph 94% 0.070 in 25.00 W/m2
15:39 41.0 °F 40.0 °F 29.8 in ESE 9 mph 7 mph 94% 0.050 in 21.00 W/m2
15:44 41.0 °F 40.0 °F 29.8 in South 9 mph 9 mph 94% 0.030 in 23.00 W/m2
15:49 41.0 °F 40.0 °F 29.8 in NE 19 mph 14 mph 94% 0.020 in 25.00 W/m2
15:54 41.0 °F 40.0 °F 29.8 in ENE 20 mph 20 mph 94% 0.010 in 14.00 W/m2
15:59 41.0 °F 40.0 °F 29.8 in NE 16 mph 13 mph 94% 0.010 in 11.00 W/m2
16:04 41.0 °F 40.0 °F 29.8 in NE 12 mph 5 mph 94% 0.010 in 14.00 W/m2
16:08 41.0 °F 40.0 °F 29.8 in NE 13 mph 13 mph 94% 0.010 in 14.00 W/m2
16:14 41.0 °F 40.0 °F 29.8 in NE 28 mph 20 mph 94% 0.010 in 7.00 W/m2
16:19 41.0 °F 40.0 °F 29.8 in North 11 mph 28 mph 94% 0.010 in 5.00 W/m2
16:24 41.0 °F 39.0 °F 29.8 in SE 11 mph 11 mph 94% 0.010 in 0.00 W/m2
16:29 41.0 °F 39.0 °F 29.8 in SSE 16 mph 10 mph 94% 0.000 in 5.00 W/m2
16:34 41.0 °F 39.0 °F 29.8 in SE 7 mph 16 mph 94% 0.000 in 0.00 W/m2
16:39 41.0 °F 39.0 °F 29.8 in East 18 mph 7 mph 94% 0.000 in 0.00 W/m2
16:44 41.0 °F 39.0 °F 29.8 in East 16 mph 17 mph 94% 0.000 in 0.00 W/m2
16:49 41.0 °F 39.0 °F 29.8 in NE 11 mph 16 mph 94% 0.000 in 0.00 W/m2
16:54 41.0 °F 39.0 °F 29.8 in NE 18 mph 10 mph 94% 0.010 in 0.00 W/m2
16:59 41.0 °F 39.0 °F 29.8 in East 9 mph 17 mph 94% 0.010 in 0.00 W/m2
17:04 41.0 °F 39.0 °F 29.8 in SE 18 mph 12 mph 94% 0.020 in 0.00 W/m2
17:09 41.0 °F 39.0 °F 29.8 in South 13 mph 17 mph 94% 0.040 in 0.00 W/m2
17:14 41.0 °F 39.0 °F 29.8 in ESE 16 mph 13 mph 94% 0.050 in 0.00 W/m2
17:19 41.0 °F 39.0 °F 29.8 in SSE 23 mph 23 mph 94% 0.070 in 0.00 W/m2
17:24 41.0 °F 39.0 °F 29.8 in ESE 7 mph 7 mph 94% 0.080 in 0.00 W/m2
17:29 41.0 °F 39.0 °F 29.8 in ESE 16 mph 10 mph 94% 0.090 in 0.00 W/m2
17:34 41.0 °F 39.0 °F 29.8 in SSE 11 mph 16 mph 94% 0.100 in 0.00 W/m2
17:39 41.0 °F 39.0 °F 29.8 in South 10 mph 10 mph 94% 0.110 in 0.00 W/m2
17:44 41.0 °F 39.0 °F 29.8 in SE 13 mph 10 mph 94% 0.110 in 0.00 W/m2
17:49 41.0 °F 39.0 °F 29.8 in NE 30 mph 19 mph 94% 0.140 in 0.00 W/m2
17:54 41.0 °F 39.0 °F 29.8 in ESE 23 mph 30 mph 94% 0.160 in 0.00 W/m2
17:59 41.0 °F 39.0 °F 29.8 in ESE 23 mph 23 mph 94% 0.180 in 0.00 W/m2
18:04 41.0 °F 39.0 °F 29.8 in SE 23 mph 23 mph 94% 0.180 in 0.00 W/m2
18:09 41.0 °F 39.0 °F 29.8 in East 20 mph 23 mph 94% 0.180 in 0.00 W/m2
18:14 40.0 °F 39.0 °F 29.8 in ESE 18 mph 20 mph 94% 0.160 in 0.00 W/m2
18:19 40.0 °F 39.0 °F 29.8 in East 30 mph 13 mph 94% 0.160 in 0.00 W/m2
18:24 40.0 °F 39.0 °F 29.8 in SE 27 mph 30 mph 94% 0.150 in 0.00 W/m2
18:29 40.0 °F 39.0 °F 29.8 in ESE 16 mph 26 mph 94% 0.150 in 0.00 W/m2
18:34 40.0 °F 39.0 °F 29.8 in ESE 20 mph 16 mph 94% 0.140 in 0.00 W/m2
18:39 40.0 °F 39.0 °F 29.8 in SE 16 mph 20 mph 94% 0.130 in 0.00 W/m2
18:44 40.0 °F 39.0 °F 29.8 in SE 9 mph 16 mph 94% 0.120 in 0.00 W/m2
18:49 40.0 °F 39.0 °F 29.8 in East 16 mph 9 mph 94% 0.110 in 0.00 W/m2
18:54 40.0 °F 39.0 °F 29.8 in NNE 23 mph 16 mph 94% 0.080 in 0.00 W/m2
18:59 40.0 °F 39.0 °F 29.8 in East 13 mph 23 mph 94% 0.050 in 0.00 W/m2
19:04 40.0 °F 39.0 °F 29.8 in ESE 16 mph 13 mph 94% 0.040 in 0.00 W/m2
19:09 40.0 °F 39.0 °F 29.8 in ENE 13 mph 16 mph 94% 0.030 in 0.00 W/m2
19:14 40.0 °F 38.0 °F 29.8 in SE 16 mph 7 mph 94% 0.030 in 0.00 W/m2
19:19 40.0 °F 38.0 °F 29.8 in SE 18 mph 16 mph 94% 0.020 in 0.00 W/m2
19:24 40.0 °F 38.0 °F 29.8 in SE 21 mph 17 mph 94% 0.010 in 0.00 W/m2
19:29 40.0 °F 38.0 °F 29.8 in ESE 16 mph 21 mph 94% 0.000 in 0.00 W/m2
19:30 40.0 °F 38.0 °F 29.8 in Calm   16 mph 94% 0.000 in 0.00 W/m2
El Dorado Weather
Compliments of Weather Underground - 2 mb